Regional Weather Roundup
Issued by NWS Bismarck, ND

Home | Current Version | Previous Version | Text Only | Print | Product List | Glossary On
Versions: 1 2 3 4 5 6 7 8 9 10 11 12 13 14 15 16 17 18 19 20 21 22 23 24 25 26 27 28 29 30 31 32 33 34 35 36 37 38 39 40 41 42 43 44 45 46 47 48 49 50
000
ASUS43 KBIS 172102
RWRBIS

NWR BROADCAST TEXT
NATIONAL WEATHER SERVICE BISMARCK ND
400 PM CDT TUE OCT 17 2017

NOTE: "FAIR" INDICATES FEW OR NO CLOUDS BELOW 12,000 FEET WITH NO
SIGNIFICANT WEATHER AND/OR OBSTRUCTIONS TO VISIBILITY.


CITY           SKY/WX    TMP DP  RH WIND       PRES   REMARKS
WILLISTON      SUNNY     77  27  15 SW18G28   29.65F
MINOT          SUNNY     76  30  18 SW21G29   29.67F
MINOT AFB      SUNNY     74  31  20 W18G25    29.64F
BISMARCK       SUNNY     80  28  15 SW15      29.77F
DICKINSON      CLOUDY    76  24  14 W20G26    29.76F
GARRISON         N/A     75  32  20 W22G28    29.72F
HETTINGER ARPT SUNNY     77  23  13 W18       29.84F
JAMESTOWN      SUNNY     76  27  16 W15G23    29.76F
CARRINGTON     FAIR      73  32  21 SW14G21   29.77F
HAZEN          FAIR      77  28  16 W17G24    29.75F
LINTON         FAIR      81  32  17 SW16G25   29.81F
RUGBY          FAIR      73  32  21 W26       29.67F
STANLEY        FAIR      73  28  19 W26       29.70F
TIOGA          FAIR      73  25  16 SW22G32   29.67F
WATFORD CITY   FAIR      75  28  17 SW16      29.69F
$$

CITY           SKY/WX    TMP DP  RH WIND       PRES   REMARKS
GRAND FORKS    MOSUNNY   80  32  17 SW17G28   29.70F
GRAND FORKS AF SUNNY     79  29  16 SW21G28   29.70F
DEVILS LAKE    SUNNY     72  34  24 SW17      29.70F
FARGO          SUNNY     76  39  26 S16G24    29.78F
CANDO          FAIR      75  32  20 SW22      29.69F
CAVALIER       FAIR      75  36  23 SW12G21   29.66F
GRAFTON        FAIR      75  34  22 SW16      29.70F
GWINNER        CLEAR     75  41  29 SW14G21   29.81F
LANGDON        FAIR      73  32  21 SW24      29.68F
ROLLA          FAIR      72  30  21 SW22G28   29.65F
WALHALLA       FAIR     N/A N/A N/A SW13G22   29.65F
$$

CITY           SKY/WX    TMP DP  RH WIND       PRES   REMARKS
ABERDEEN       SUNNY     79  35  20 SW13      29.85F
MOBRIDGE       SUNNY     82  28  14 SW12      29.80F
BUFFALO          N/A     78  18  10 SW14      29.79F
RAPID CITY     SUNNY     76  27  16 SE14      29.89F
GLASGOW        SUNNY     78  21  12 SW21G35   29.62F
SIDNEY         SUNNY     78  23  13 SW18G25   29.67F
WOLF POINT     SUNNY     79  22  12 SW25G33   29.64F
GLENDIVE       SUNNY     77  23  13 SW24      29.73F
MILES CITY     SUNNY     79  23  12 SW16G28   29.77F
BAKER          SUNNY     74  26  16 SW18      29.82F
$$

CITY           SKY/WX    TMP DP  RH WIND       PRES   REMARKS
BILLINGS       PTSUNNY   72  21  14 SW16G25   29.84F
GREAT FALLS    SUNNY     73  18  12 W39G53    29.69F
$$





USA.gov is the U.S. government's official web portal to all federal, state and local government web resources and services.